Location: Innerarity Island Observatory
(30.3139°N, 87.4867°W)
Time: 20:27:27
(UTC-05:00)

OPAL - Visible Passes

Search period start: 19 April 2018 00:00
Search period end: 29 April 2018 00:00
Orbit: 743 x 796 km, 100.2° (Epoch: 19 April)

Date Brightness Start Highest point End Pass type
(mag) Time Alt. Az. Time Alt. Az. Time Alt. Az.
19 Apr 9.7 20:46:00 10° ENE 20:46:00 10° ENE 20:46:27 10° NE visible
19 Apr 9.2 22:26:17 30° NNW 22:26:17 30° NNW 22:28:50 10° NNW visible
20 Apr 8.8 21:50:13 31° NNE 21:50:13 31° NNE 21:53:11 10° N visible
21 Apr 9.2 21:14:11 19° NE 21:14:11 19° NE 21:16:42 10° NNE visible
21 Apr 9.8 22:54:27 21° NW 22:54:27 21° NW 22:56:22 10° NNW visible
22 Apr 8.9 22:18:24 34° NNW 22:18:24 34° NNW 22:21:14 10° NNW visible
23 Apr 8.8 21:42:21 29° NNE 21:42:21 29° NNE 21:45:23 10° N visible
23 Apr 10.3 23:22:38 13° WNW 23:22:38 13° WNW 23:23:20 10° NW visible
24 Apr 9.4 21:06:18 15° NE 21:06:18 15° NE 21:08:32 10° NNE visible
24 Apr 9.4 22:46:35 26° NW 22:46:35 26° NW 22:48:55 10° NNW visible
25 Apr 8.7 22:10:32 36° N 22:10:32 36° N 22:13:34 10° N visible
26 Apr 8.9 21:34:29 25° NE 21:34:29 25° NE 21:37:31 10° N visible
26 Apr 10.0 23:14:46 16° NW 23:14:46 16° NW 23:16:09 10° NW visible
27 Apr 9.6 20:58:26 12° ENE 20:58:26 12° ENE 21:00:02 10° NE visible
27 Apr 9.1 22:38:43 31° NNW 22:38:43 31° NNW 22:41:25 10° NNW visible
28 Apr 8.6 22:02:40 36° NNE 22:02:40 36° NNE 22:05:52 10° N visible
